Edgartown, MA

3:53 AM EST on January 17, 2017 (GMT -0500)
Martha's Vineyard

Weather History for KMVY - January, 2014

Change the Weather History Date:

Saturday, January 18, 2014

  Actual Average Record
Temperature  
Mean Temperature 38 °F -  
Max Temperature 43 °F 35 °F 55 °F (1990)
Min Temperature 33 °F 19 °F 0 °F (2003)
Degree Days  
Heating Degree Days 27    
Moisture  
Dew Point 36 °F    
Average Humidity 88    
Maximum Humidity 93    
Minimum Humidity 81    
Precipitation  
Precipitation 0.32 in - - ()
Sea Level Pressure  
Sea Level Pressure 29.71 in    
Wind  
Wind Speed 6 mph (WSW)    
Max Wind Speed 17 mph    
Max Gust Speed 25 mph    
Visibility 9 miles    
Events Rain    
Averages and records for this station are not official NWS values.
T = Trace of Precipitation, MM = Missing Value Source: NWS Daily Summary

Daily Weather History Graph

Daily Weather History Graph

Search for Another Location

Airport or City:

Trip Planner

Search our weather history database for the weather conditions in past years. The results will help you decide how hot, cold, wet, or windy it might be!

Date:

Astronomy

Jan. 18, 2014 Rise Set
Actual Time 7:04 AM EST 4:41 PM EST
Civil Twilight 6:34 AM EST 5:11 PM EST
Nautical Twilight 6:00 AM EST 5:45 PM EST
Astronomical Twilight 5:27 AM EST 6:18 PM EST
Moon 7:22 PM EST (1/18) 8:00 AM EST (1/18)
Length of Visible Light 10h 37m
Length of Day
9h 36m
Waning Gibbous, 94% of the Moon is Illuminated
Jan 18
Waning Gibbous
Jan 24
Last Quarter
Jan 30
New
Feb 6
First Quarter
Feb 14
Full

Hourly Weather History & Observations

Time (EST) Temp. Windchill Dew Point Humidity Pressure Visibility Wind Dir Wind Speed Gust Speed Precip Events Conditions
12:05 AM 33.8 °F 30.8 °F 30.2 °F 87% 29.93 in 10.0 mi SSE 3.5 mph - N/A   Overcast
12:53 AM 36.0 °F - 33.1 °F 89% 29.92 in 10.0 mi Calm Calm - N/A   Overcast
1:53 AM 41.0 °F 37.1 °F 37.0 °F 86% 29.91 in 6.0 mi SE 5.8 mph - 0.01 in Rain Light Rain
2:53 AM 39.9 °F - 37.9 °F 93% 29.90 in 6.0 mi Calm Calm - 0.01 in Rain Light Rain
3:05 AM 41.0 °F - 37.4 °F 87% 29.90 in 7.0 mi Calm Calm - 0.01 in Rain Light Rain
3:12 AM 39.2 °F - 37.4 °F 93% 29.90 in 9.0 mi Calm Calm - 0.01 in Rain Light Rain
3:53 AM 39.9 °F 37.8 °F 37.0 °F 89% 29.87 in 6.0 mi NE 3.5 mph - 0.02 in Rain Light Rain
4:53 AM 39.9 °F 36.7 °F 37.0 °F 89% 29.85 in 6.0 mi NE 4.6 mph - 0.00 in   Overcast
5:48 AM 42.8 °F 39.3 °F 37.4 °F 81% 29.83 in 10.0 mi East 5.8 mph - N/A   Overcast
5:53 AM 42.1 °F 38.4 °F 37.9 °F 85% 29.82 in 10.0 mi East 5.8 mph - N/A   Overcast
6:18 AM 41.0 °F - 37.4 °F 87% 29.81 in 10.0 mi Calm Calm - N/A   Overcast
6:53 AM 41.0 °F 36.4 °F 37.0 °F 86% 29.81 in 10.0 mi ESE 6.9 mph - N/A   Overcast
7:53 AM 42.1 °F 36.1 °F 37.0 °F 82% 29.78 in 10.0 mi SE 10.4 mph - N/A   Overcast
8:34 AM 42.8 °F 36.2 °F 37.4 °F 81% 29.75 in 10.0 mi ESE 12.7 mph - 0.01 in Rain Light Rain
8:53 AM 42.1 °F 35.7 °F 37.0 °F 82% 29.77 in 10.0 mi ESE 11.5 mph - 0.01 in Rain Light Rain
9:53 AM 42.1 °F 36.6 °F 37.9 °F 85% 29.74 in 10.0 mi SE 9.2 mph - 0.04 in Rain Light Rain
10:53 AM 43.0 °F 38.2 °F 39.0 °F 86% 29.70 in 10.0 mi SE 8.1 mph - 0.00 in Rain Light Rain
11:53 AM 43.0 °F 35.1 °F 39.0 °F 86% 29.62 in 10.0 mi SE 17.3 mph 25.3 mph 0.01 in Rain Light Rain
12:16 PM 42.8 °F 35.4 °F 39.2 °F 87% 29.60 in 9.0 mi SE 15.0 mph - 0.00 in Rain Light Rain
12:32 PM 42.8 °F 35.1 °F 39.2 °F 87% 29.59 in 5.0 mi SE 16.1 mph 23.0 mph 0.01 in Rain Light Rain
12:53 PM 42.1 °F 34.2 °F 39.9 °F 92% 29.58 in 7.0 mi SSE 16.1 mph 23.0 mph 0.02 in Rain Light Rain
1:37 PM 42.8 °F 36.6 °F 39.2 °F 87% 29.59 in 2.0 mi WSW 11.5 mph - 0.09 in Rain Heavy Rain
1:53 PM 42.1 °F 37.7 °F 39.0 °F 89% 29.59 in 2.0 mi SW 6.9 mph 17.3 mph 0.19 in Rain Rain
2:00 PM 42.8 °F 39.3 °F 39.2 °F 87% 29.58 in 7.0 mi South 5.8 mph - 0.01 in Rain Light Rain
2:44 PM 42.8 °F - 39.2 °F 87% 29.58 in 10.0 mi Calm Calm - 0.01 in   Overcast
2:53 PM 43.0 °F 40.3 °F 39.0 °F 86% 29.59 in 10.0 mi West 4.6 mph - 0.01 in   Overcast
3:03 PM 42.8 °F 38.0 °F 39.2 °F 87% 29.59 in 10.0 mi WNW 8.1 mph - N/A   Overcast
3:22 PM 42.8 °F 36.2 °F 37.4 °F 81% 29.59 in 10.0 mi NNW 12.7 mph - 0.00 in   Overcast
3:53 PM 39.9 °F 33.4 °F 36.0 °F 86% 29.60 in 10.0 mi NW 10.4 mph - 0.00 in   Partly Cloudy
4:53 PM 36.0 °F 33.3 °F 33.1 °F 89% 29.60 in 10.0 mi NW 3.5 mph - N/A   Clear
5:53 PM 33.1 °F 30.0 °F 30.0 °F 89% 29.61 in 5.0 mi West 3.5 mph - N/A   Clear
6:20 PM 33.8 °F 29.6 °F 32.0 °F 93% 29.62 in 10.0 mi West 4.6 mph - N/A   Mostly Cloudy
6:31 PM 35.6 °F 31.7 °F 33.8 °F 93% 29.63 in 10.0 mi West 4.6 mph - N/A   Mostly Cloudy
6:51 PM 35.6 °F 30.7 °F 33.8 °F 93% 29.63 in 10.0 mi West 5.8 mph - N/A   Overcast
6:53 PM 36.0 °F 31.1 °F 33.1 °F 89% 29.63 in 10.0 mi West 5.8 mph - N/A   Overcast
7:53 PM 37.0 °F 29.8 °F 34.0 °F 89% 29.65 in 10.0 mi West 10.4 mph - N/A   Overcast
8:18 PM 37.4 °F 32.1 °F 33.8 °F 87% 29.65 in 10.0 mi West 6.9 mph - N/A   Overcast
8:53 PM 37.0 °F 32.4 °F 34.0 °F 89% 29.67 in 10.0 mi WNW 5.8 mph - N/A   Overcast
9:53 PM 36.0 °F 30.3 °F 33.1 °F 89% 29.69 in 10.0 mi West 6.9 mph - 0.00 in Rain Light Rain
10:00 PM 35.6 °F 30.7 °F 33.8 °F 93% 29.69 in 10.0 mi West 5.8 mph - 0.00 in Rain Light Rain
10:25 PM 35.6 °F 29.2 °F 33.8 °F 93% 29.69 in 10.0 mi West 8.1 mph - 0.00 in   Overcast
10:53 PM 37.0 °F 31.0 °F 33.1 °F 86% 29.69 in 10.0 mi WNW 8.1 mph - 0.00 in   Overcast
11:09 PM 37.4 °F 32.1 °F 33.8 °F 87% 29.69 in 10.0 mi WNW 6.9 mph - N/A   Overcast
11:29 PM 35.6 °F 29.2 °F 32.0 °F 87% 29.70 in 10.0 mi WNW 8.1 mph - N/A   Overcast
11:53 PM 37.0 °F 31.6 °F 33.1 °F 86% 29.71 in 10.0 mi WNW 6.9 mph - N/A   Overcast